Погода в Чите

Погода в Чите : погода сейчас, прогноз погоды и архив. Всё, что Вы хотите узнать о погоде в Чите!

Поиск расширенной информации на нашем сайте:

Другие новости

Новости СМИ2

Главная страница сайта

Новости сайта

03.07.2017

Напоминаем, что на нашем специализированном сайте Метеоцентр.Азия вы можете получить высокодетализированные автоматические прогнозы погоды по пунктам России, СНГ и мира в авиационном формате (включающие направление и скорость ветра, видимость, явления погоды, количество и форму облачности, нижнюю и верхнюю границу облачности).


Погода в Чите - сегодня

Время (UTC), дата Ветер
(°,м/с) 
Видим.   Явления Облачность Т
(°С)
Тd
(°С)
f(%) Тe
(°С)
Pmin
(гПа)
dP
(гПа)
Po
(мм)
O2
(г/м3)
Тmin Tmax R s Состояние
почвы
18 14.08.18 080 (В) 50000 м    ясно 
+14.1 +12.4 89 +21  1015.5  704  267           
21 14.08.18 тихо ()   20000 м    ясно 
+12.5 +11.3 92 +17  1016.6  0.5  704  269           
00 15.08.18 340 (С) 20000 м    10/0 верхняя 
[Ci]
+17.8 +13.8 77 +27  1015.6  0.5  705  264  +12.2        сухая 
03 15.08.18 150 (ЮВ) 20000 м    10/0 средняя 
[Ac As]
+23.3 +15.4 61 +34  1013.4  -0.6  704  258           
06 15.08.18 150 (ЮВ) 6{11}  20000 м    10/4 600 м кучево-дожд., средняя, верхняя 
[Cb cap|Ac trans|Ci fib]
+26.8 +16.1 52 +39  1011.3  -1.1  703  255           
09 15.08.18 160 (Ю) 5{11}  20000 м    8/3 600 м кучево-дожд., средняя, верхняя 
[Cb cap|Ac lent|Ci fib]
+27.1 +14.9 47 +37  1010.1  -1.1  703  254           
12 15.08.18 140 (ЮВ) 4{11}  20000 м    8/5 600 м кучево-дожд., средняя, верхняя 
[Cb cap|Ac lent|Ci fib]
+24.4 +15.7 58 +36  1010.1  -0.6  702  256    +27.7       
15 15.08.18 160 (Ю) 50000 м    8/6 600 м кучево-дожд., средняя, верхняя 
[Cb cap|Ac trans|Ci fib]
+22.9 +16.2 66 +36  1010.5  0.1  702  257           
18 15.08.18 200 (Ю) 50000 м    10/4 600 м кучево-дожд., средняя, верхняя 
[Cb cap|Ac trans|Ci fib]
+18.7 +12.5 67 +26  1012.5  0.7  703  262           
21 15.08.18 260 (З) 20000 м    10/3 600 м кучево-дожд., средняя, верхняя 
[Cb cap|Ac As|Ci fib]
+16.8 +12.7 77 +25  1012.9  0.1  703  264           
00 16.08.18 230 (ЮЗ) 20000 м  слаб. дождь{ливн. осадки}  10/8 600 м средняя 
[Frnb|As op]
+15.5 +14.3 93 +25  1012.8  -0.4  702  265  +15.2      влажная 
03 16.08.18 тихо ()   20000 м  слаб. дождь  10/8 600 м средняя 
[Frnb|As op]
+16 +14.3 90 +25  1011.5  -1.1  702  264           
06 16.08.18 330 (СЗ) 20000 м  слаб. дождь  10/8 600 м средняя 
[Frnb|As op]
+15.5 +13.2 86 +23  1010  -1.5  700  264           
09 16.08.18 290 (З) 20000 м  {дождь}  6/4 600 м средняя 
[Sc diur, vesp|Ac trans]
+18.9 +12.5 66 +26  1008  -1  700  261           
12 16.08.18 250 (З) 20000 м  {дождь}  8/4 1000 м средняя, верхняя 
[Sc|Ac trans|Ci fib]
+16.4 +11.9 75 +23  1009.3  0.6  700  264    +19.3     
15 16.08.18 200 (Ю) 50000 м    8/8 1000 м 
[Sc]
+15.2 +10.5 73 +19  1010.2  0.5  700  265           
18 16.08.18 250 (З) 50000 м    3/3 1000 м 
[Sc]
+13.3 +6 61 +14  1011.1  0.2  701  268           
21 16.08.18 210 (ЮЗ) н/о    н/о 
+11.2 +7.8 80 +11  1011.3  -0.3  700  270           
00 17.08.18 190 (Ю) 20000 м    3/0 средняя 
[Ac trans]
+13.1 +7.8 70 +13  1010.4  -0.4  700  268  +10.8        влажная 
03 17.08.18 250 (З) 20000 м    8/8 600 м кучево-дожд. 
[Cb cap]
+17.3 +7.9 54 +18  1007.9  -1.3  699  263           
06 17.08.18 280 (З) 20000 м    8/8 600 м кучево-дожд. 
[Cb cap]
+19.8 +7.5 45 +20  1005.7  -1.3  698  261           
09 17.08.18 250 (З) 20000 м    10/3 1000 м средняя, верхняя 
[Cu hum|Ac trans|Ci fib]
+19.9 +7 43 +21  1004.5  -1.1  697  261           
15 17.08.18 280 (З) н/о    н/о 
+14.9 +9.2 69 +18  1005.2  -0.5  697  265           
18 17.08.18 250 (З) 20000 м    3/0 верхняя 
[Ci fib]
+13.7 +8.9 73 +15  1004.3  -1.2  696  265           
21 17.08.18 210 (ЮЗ) 20000 м    10/0 средняя, верхняя 
[Ac trans|Ci fib]
+13.2 +8.5 73 +14  1004.5  0.1  696  266           
Время (UTC), дата Ветер
(°,м/с) 
Видим.   Явления Облачность Т
(°С)
Тd
(°С)
f(%) Тe
(°С)
Pmin
(гПа)
dP
(гПа)
Po
(мм)
O2
(г/м3)
Тmin Tmax R s Состояние
почвы

Для получения пояснительной информации подведите курсор к названию столбца.

ПОГОДА в Чите - архив

Всё, что Вы хотите узнать о погоде в Чите - удобно и подробно!

Выберите нужную дату (начиная с 1 января 2015* года) и нажмите кнопку "Найти".
Будут отображены архивные сводки погоды по пункту Чита, начиная с указанной даты.


Отображать данные в формате CSV (для использования в таблицах Excel)


Внимание! Наш архив погоды предназначен исключительно для личного некоммерческого использования в познавательных целях. Если Вам необходимы официальные справки о состоянии погоды (для производственных, юридических, коммерческих и т.п. целей), обращайтесь в органы Росгидромета.

*Примечание: данная дата относится к архиву по метеостанциям СССР (Россия, СНГ, Балтия).
Архив по метеостанциям Зарубежной Европы и Азии (кроме Китая) хранится 10 дней, по другим регионам земного шара (Китай, Африка, Америка, Австралия, Океания) - 1 день.

Чита - район местоположения метеостанции


Название, широта, долгота, высота метеостанции:
Чита (город) 52.1°ш. 113.3°д. 680 м над ур. моря [Российская Федерация]

Дополнительная информация

В oтличие oт бoльшинства пoгoдных сайтoв мы публикуем пoдрoбную метеoинфoрмацию в детальнoм прoфессиoнальнoм фoрмате.

Характеристики температуры и влажнoсти вoздуха измеряются на высoте 2 м в тени вдали oт зданий и деревьев.
Скoрoсть ветра измеряется на высoте 10 м (на урoвне рoста челoвека скoрoсть ветра ниже в 1.5-2 раза). Если метеoстанция нахoдится в гoрoде или в лесу, тo скoрoсть ветра занижена на 2-4 м/с пo сравнению с oткрытым местoм. Скoрoсть ветра над акватoриями крупных рек и oзёр, а также на вершинах хoлмoв на 2-5 м/с выше, чем в oбычных услoвиях.
Атмoсфернoе давление в разных тoчках местнoсти мoжет значительнo oтличаться oт давления на метеoстанции, в зависимoсти oт услoвий рельефа (при пoдъёме на 10 м давление пoнижается примернo на 1 мм рт.ст.).